Flag for Egypt Weather past 2 weeks in Port Said, Egypt

Now
82 °F

Clear.


Feels Like: 89 °F
Forecast: 82 / 89 °F
Wind: 10 mph from North

Location: Port Said Airport

Current Time: Aug 29, 2015 at 12:30:23 AM

Latest Report: Aug 28, 2015 at 11:00 PM


Visibility: 10 mi

Pressure: 29.89 "Hg

Humidity: 79%

Dew point: 75 °F

Location of Port SaidLocation

Historic Weather in Port Said — Graph

°F

Port Said temperature yesterday

Maximum temperature yesterday: 90 °F (at 2:00 PM)
Minimum temperature yesterday: 81 °F (at 3:00 AM)
Average temperature yesterday: 84 °F

Past Weeks' High & Low Weather Summary

 TemperatureHumidityPressure
High102 °F (Aug 19, 3:00 PM)94% (Aug 20, 5:00 AM)29.92 "Hg (Aug 20, 5:00 AM)
Low77 °F (Aug 20, 5:00 AM)39% (Aug 16, 9:00 AM)29.62 "Hg (Aug 15, 11:00 AM)
Average85 °F73%29.81 "Hg
* Reported Aug 13 11:00 PM — Aug 28 11:00 PM, Port Said, Weather by CustomWeather, © 2015

Note: Actual official high and low records may vary slightly from our data, if they occured in-between our weather recording intervals... More about our weather records

Advertising

Port Said weather history for previous 24 hours

 ConditionsComfort  
Time TempWeatherWind HumidityBarometerVisibility
11:00 PM
Fri, Aug 28
82 °FClear.10 mph79%29.89 "Hg10 mi
10:00 PM84 °FClear.10 mph74%29.92 "Hg10 mi
9:00 PM84 °FClear.12 mph74%29.89 "Hg10 mi
8:00 PM84 °FClear.12 mph74%29.89 "Hg10 mi
7:00 PM84 °FClear.12 mph79%29.89 "Hg10 mi
6:00 PM86 °FSunny.13 mph70%29.89 "Hg10 mi
5:00 PM86 °FSunny.12 mph70%29.89 "Hg10 mi
4:00 PM88 °FSunny.10 mph62%29.89 "Hg10 mi
3:00 PM88 °FSunny.9 mph66%29.89 "Hg10 mi
2:00 PM90 °FSunny.8 mph63%29.89 "Hg10 mi
1:00 PM86 °FSunny.5 mph70%29.92 "Hg10 mi
12:00 PM88 °FSunny.3 mph66%29.92 "Hg10 mi
11:00 AM86 °FPassing clouds.3 mph70%29.92 "HgN/A
10:00 AM86 °FPassing clouds.3 mph70%29.92 "HgN/A
9:00 AM84 °FPassing clouds.2 mph74%29.92 "HgN/A
8:00 AM84 °FScattered clouds.6 mph70%29.89 "HgN/A
7:00 AM82 °FScattered clouds.6 mph79%29.89 "HgN/A
6:00 AM81 °FScattered clouds.7 mph89%29.86 "HgN/A
5:00 AM81 °FPassing clouds.7 mph89%29.86 "HgN/A
4:00 AM81 °FClear.12 mph89%29.86 "Hg10 mi
3:00 AM81 °FClear.12 mph89%29.86 "Hg10 mi
2:00 AM82 °FClear.14 mph84%29.86 "Hg10 mi
1:00 AM82 °FClear.16 mph84%29.86 "Hg10 mi
12:00 AM82 °FClear.15 mph84%29.86 "Hg10 mi
Weather by CustomWeather, © 2015

See weather overviewHow to use our weather pages